This demonstration page uses our WeatherBlox Daily Observations layout. Learn more.

39.29038, -76.61219

Hourly Observations for July 29, 2015

Temp ( °F °C ) Dew Point ( °F °C ) Humidity (%) Winds ( mph kmh ) Pressure ( in mb ) Visibility ( mi km ) Precip ( " mm )
12:54 am 00:54 Mostly Clear 79 26.1 71 21.7 77 77 undefined N/A 30 1016 N/A 0 0
1:54 am 01:54 Mostly Clear 78 25.6 71 21.7 79 79 undefined N/A 30 1016 N/A 0 0
2:54 am 02:54 Mostly Cloudy 77 25 72 22.2 85 85 undefined N/A 29.9 1013 N/A 0 0
3:54 am 03:54 undefined 77 25 72 22.2 85 85 undefined N/A 29.97 1015 N/A 0 0
4:54 am 04:54 Cloudy 76 24.4 72 22.2 88 88 undefined N/A 29.98 1015 N/A 0 0
5:54 am 05:54 undefined 76 24.4 72 22.2 88 88 undefined N/A 29.99 1016 N/A 0 0
6:54 am 06:54 Partly Cloudy 77 25 72 22.2 85 85 undefined N/A 29.95 1014 N/A 0 0
7:54 am 07:54 Mostly Sunny 79 26.1 73 22.8 82 82 undefined N/A 30 1016 N/A 0 0
8:54 am 08:54 Sunny 78 25.5 69 20.5 74 74 undefined N/A 30.93 1047 N/A 0 0
9:54 am 09:54 Sunny 71 21.5 65 18.2 82 82 undefined N/A 30.01 1016 N/A 0 0
10:54 am 10:54 undefined 86 30 72 22.2 63 63 undefined N/A 30.01 1016 N/A 0 0
11:54 am 11:54 undefined 87 30.6 73 22.8 63 63 undefined N/A 30 1016 N/A 0 0
12:54 pm 12:54 undefined 86 30 73 22.8 65 65 undefined N/A 29.99 1016 N/A 0 0
1:54 pm 13:54 undefined 80 26.7 73 22.8 79 79 undefined N/A 29.99 1016 N/A 0.12 3.048
2:54 pm 14:54 Mostly Cloudy 78 25.6 74 23.3 87 87 undefined N/A 30 1016 N/A 0.04 1.016
3:54 pm 15:54 Cloudy 79 26.1 74 23.3 85 85 undefined N/A 29.98 1015 N/A 0.01 0.254
4:54 pm 16:54 Cloudy 79 26.1 76 24.4 90 90 undefined N/A 29.96 1015 N/A 0 0
5:54 pm 17:54 Partly Cloudy 100 37.8 59 15 26 26 undefined N/A 29.86 1011 N/A 0 0
6:54 pm 18:54 undefined 78 25.6 75 23.9 90 90 undefined N/A 29.93 1014 N/A 0.01 0.254
7:54 pm 19:54 undefined 80 26.7 76 24.4 87 87 undefined N/A 29.94 1014 N/A 0.01 0.254
8:54 pm 20:54 Cloudy 79 26.1 76 24.4 90 90 undefined N/A 29.94 1014 N/A 0 0
9:54 pm 21:54 Mostly Cloudy 75 23.8 71 21.6 88 88 undefined N/A 30.91 1047 N/A 0.06 1.524
10:54 pm 22:54 Cloudy 83 28.3 21 -6.1 10 10 undefined N/A 30.02 1017 N/A 0 0
11:54 pm 23:54 Mostly Cloudy 81 27.2 71 21.6 72 72 undefined N/A 30.87 1045 N/A 0 0

Powered by AerisWeather